Helena, MT

1:11 AM MST on January 17, 2017 (GMT -0700)
Helena Regional

Weather History for KHLN - February, 2013

Change the Weather History Date:

Saturday, February 2, 2013

  Actual Average Record
Temperature  
Mean Temperature 37 °F 26 °F  
Max Temperature 46 °F 36 °F 66 °F (1962)
Min Temperature 27 °F 15 °F -42 °F (1996)
Degree Days  
Heating Degree Days 28 40  
Month to date heating degree days 54 80  
Since 1 July heating degree days 4263 4598  
Cooling Degree Days 0 0  
Month to date cooling degree days 0 0  
Year to date cooling degree days 0 0  
Moisture  
Dew Point 21 °F    
Average Humidity 56    
Maximum Humidity 75    
Minimum Humidity 37    
Precipitation  
Precipitation 0.00 in 0.01 in 0.82 in (1895)
Month to date precipitation T 0.02  
Year to date precipitation 0.35 0.38  
Snow  
Snow 0.00 in 0.20 in 8.20 in (1895)
Month to date snowfall 0.0 0.4  
Since 1 July snowfall 29.4 22.7  
Snow Depth 0.00 in    
Sea Level Pressure  
Sea Level Pressure 30.39 in    
Wind  
Wind Speed 10 mph (West)    
Max Wind Speed 21 mph    
Max Gust Speed 26 mph    
Visibility 10 miles    
Events      
T = Trace of Precipitation, MM = Missing Value Source: NWS Daily Summary

Daily Weather History Graph

Daily Weather History Graph

Search for Another Location

Airport or City:

Trip Planner

Search our weather history database for the weather conditions in past years. The results will help you decide how hot, cold, wet, or windy it might be!

Date:

Astronomy

Feb. 02, 2013 Rise Set
Actual Time 7:50 AM MST 5:33 PM MST
Civil Twilight 7:17 AM MST 6:06 PM MST
Nautical Twilight 6:41 AM MST 6:42 PM MST
Astronomical Twilight 6:06 AM MST 7:17 PM MST
Moon 12:10 AM MST (2/2) 10:34 AM MST (2/2)
Length of Visible Light 10h 48m
Length of Day
9h 43m
Waning Gibbous, 59% of the Moon is Illuminated
Feb 2
Waning Gibbous
Feb 3
Last Quarter
Feb 10
New
Feb 17
First Quarter
Feb 25
Full

Hourly Weather History & Observations

Time (MST) Temp. Windchill Dew Point Humidity Pressure Visibility Wind Dir Wind Speed Gust Speed Precip Events Conditions
12:53 AM 37.0 °F 27.0 °F 21.0 °F 52% 30.37 in 10.0 mi West 18.4 mph 25.3 mph N/A   Clear
1:53 AM 35.6 °F 27.1 °F 21.2 °F 56% 30.28 in 10.0 mi West 12.7 mph 21.9 mph N/A   Clear
2:53 AM 36.0 °F 28.5 °F 21.0 °F 55% 30.40 in 10.0 mi West 10.4 mph - N/A   Scattered Clouds
3:53 AM 36.0 °F 28.0 °F 21.0 °F 55% 30.41 in 10.0 mi West 11.5 mph - N/A   Partly Cloudy
5:53 AM 36.0 °F 29.6 °F 21.0 °F 55% 30.43 in 10.0 mi West 8.1 mph - N/A   Clear
6:53 AM 36.0 °F 29.6 °F 21.0 °F 55% 30.45 in 10.0 mi West 8.1 mph - N/A   Overcast
7:53 AM 35.1 °F 29.3 °F 21.0 °F 57% 30.45 in 10.0 mi WSW 6.9 mph - N/A   Clear
8:53 AM 37.0 °F 31.0 °F 21.0 °F 52% 30.47 in 10.0 mi West 8.1 mph - N/A   Clear
9:53 AM 39.0 °F 31.8 °F 21.0 °F 49% 30.48 in 10.0 mi WSW 11.5 mph - N/A   Clear
10:53 AM 42.1 °F 36.1 °F 21.9 °F 45% 30.46 in 10.0 mi West 10.4 mph - N/A   Clear
11:53 AM 43.0 °F 35.7 °F 21.9 °F 43% 30.44 in 10.0 mi West 15.0 mph - N/A   Clear
12:53 PM 44.1 °F 36.5 °F 21.9 °F 42% 30.41 in 10.0 mi WSW 17.3 mph 23.0 mph N/A   Clear
1:53 PM 45.0 °F 38.9 °F 21.9 °F 40% 30.39 in 10.0 mi West 12.7 mph 24.2 mph N/A   Clear
2:53 PM 46.0 °F 39.9 °F 21.9 °F 39% 30.37 in 10.0 mi West 13.8 mph 24.2 mph N/A   Clear
3:53 PM 45.0 °F 38.2 °F 21.9 °F 40% 30.36 in 10.0 mi West 15.0 mph 24.2 mph N/A   Clear
4:53 PM 44.1 °F 37.4 °F 21.0 °F 40% 30.36 in 10.0 mi West 13.8 mph 18.4 mph N/A   Clear
5:53 PM 39.0 °F 34.0 °F 21.9 °F 50% 30.37 in 10.0 mi West 6.9 mph - N/A   Clear
6:53 PM 36.0 °F 29.6 °F 21.9 °F 57% 30.38 in 10.0 mi WNW 8.1 mph - N/A   Clear
7:53 PM 39.0 °F - 21.0 °F 49% 30.37 in 10.0 mi Calm Calm - N/A   Clear
8:53 PM 37.9 °F - 21.0 °F 51% 30.35 in 10.0 mi Calm Calm - N/A   Clear
9:53 PM 34.0 °F - 21.0 °F 59% 30.35 in 10.0 mi Calm Calm - N/A   Clear
10:53 PM 28.9 °F 23.9 °F 21.9 °F 75% 30.33 in 10.0 mi NNW 4.6 mph - N/A   Clear
11:53 PM 28.0 °F 22.8 °F 21.9 °F 78% 30.33 in 10.0 mi SW 4.6 mph - N/A   Clear